Flag for Austria Weather past 2 weeks in Linz, Upper Austria, Austria

Now
59 °F

Light rain. Partly cloudy.


Feels Like: 58 °F
Forecast: 53 / 60 °F
Wind: 8 mph from Southwest

Location: Linz / Hoersching-Flughafen

Current Time: Oct 20, 2014 at 11:48:25 PM

Latest Report: Oct 20, 2014 at 10:50 PM


Visibility: N/A

Pressure: 30.01 "Hg

Humidity: 94%

Dew point: 57 °F

Location of LinzLocation

Historic Weather in Linz — Graph

°F

Linz temperature yesterday

Maximum temperature yesterday: 59 °F (at 4:20 PM)
Minimum temperature yesterday: 45 °F (at 2:50 AM)
Average temperature yesterday: 50 °F

Past Weeks' High & Low Weather Summary

 TemperatureHumidityPressure
High70 °F (Oct 12, 2:50 PM)100% (Oct 5, 11:50 PM)30.30 "Hg (Oct 5, 11:50 PM)
Low43 °F (Oct 6, 6:50 AM)53% (Oct 14, 3:50 PM)29.68 "Hg (Oct 14, 12:50 AM)
Average56 °F89%29.97 "Hg
* Reported Oct 5 10:20 PM — Oct 20 10:20 PM, Linz, Weather by CustomWeather, © 2014

Note: Actual official high and low records may vary slightly from our data, if they occured in-between our weather recording intervals... More about our weather records

Advertising

Linz weather history for previous 24 hours

 ConditionsComfort  
Time TempWeatherWind HumidityBarometerVisibility
10:20 PM
Oct 20
59 °FLight rain. Partly cloudy.9 mph94%30.01 "HgN/A
9:50 PM59 °FRain showers. Partly cloudy.6 mph94%30.01 "HgN/A
9:20 PM59 °FThundershowers. Partly cloudy.6 mph94%30.01 "HgN/A
8:50 PM61 °FThundershowers. Passing clouds.9 mph88%30.01 "HgN/A
8:20 PM61 °FPartly cloudy.6 mph88%30.01 "HgN/A
7:50 PM59 °FPartly cloudy.2 mph94%30.01 "HgN/A
7:20 PM61 °FPartly cloudy.2 mph88%30.01 "HgN/A
6:50 PM61 °FBroken clouds.2 mph88%30.01 "HgN/A
6:20 PM61 °FPartly sunny.3 mph88%30.01 "HgN/A
5:50 PM64 °FBroken clouds.1 mph78%30.01 "HgN/A
5:20 PM64 °FBroken clouds.2 mph78%30.04 "HgN/A
4:50 PM66 °FBroken clouds.3 mph73%30.04 "HgN/A
4:20 PM66 °FBroken clouds.2 mph73%30.04 "HgN/A
3:50 PM64 °FPartly sunny.1 mph78%30.04 "HgN/A
3:20 PM64 °FPartly sunny.1 mph78%30.07 "HgN/A
2:50 PM63 °FPartly sunny.1 mph83%30.07 "HgN/A
2:20 PM61 °FPartly sunny.3 mph83%30.07 "HgN/A
1:50 PM59 °FScattered clouds.2 mph82%30.09 "HgN/A
1:20 PM57 °FBroken clouds.5 mph82%30.09 "HgN/A
12:50 PM54 °FPartly sunny.3 mph94%30.09 "HgN/A
12:20 PM54 °FBroken clouds.2 mph94%30.12 "HgN/A
11:50 AM52 °FPartly sunny.2 mph94%30.12 "HgN/A
11:20 AM52 °FPartly sunny.3 mph94%30.15 "HgN/A
10:50 AM52 °FPartly sunny.1 mph94%30.15 "HgN/A
10:20 AM50 °FPartly sunny.1 mph100%30.15 "HgN/A
9:50 AM50 °FBroken clouds.1 mph94%30.15 "HgN/A
9:20 AM48 °FFog.2 mph94%30.15 "HgN/A
8:50 AM46 °FFog.1 mph100%30.15 "Hg5 mi
8:20 AM46 °FFog.2 mph93%30.12 "Hg4 mi
7:50 AM45 °FFog.1 mph100%30.12 "Hg5 mi
7:20 AM45 °FFog.2 mph100%30.12 "Hg5 mi
6:50 AM45 °FFog.1 mph100%30.12 "Hg3 mi
5:20 AM45 °FQuite cool.3 mph100%30.15 "Hg4 mi
4:50 AM46 °FPassing clouds.5 mph100%30.15 "Hg1 mi
4:20 AM46 °FSleet. Overcast.5 mph100%30.12 "Hg1 mi
3:50 AM46 °FFog.5 mph100%30.15 "Hg0 mi
3:20 AM46 °FFog.3 mph100%30.15 "Hg0 mi
2:50 AM46 °FFog.3 mph100%30.15 "Hg1 mi
2:20 AM48 °FCool.3 mph100%30.15 "Hg1 mi
1:50 AM46 °FFog.3 mph100%30.15 "Hg1 mi
1:20 AM46 °FFog.2 mph100%30.15 "Hg1 mi
12:50 AM46 °FFog.1 mph100%30.15 "Hg1 mi
12:20 AM46 °FFog.2 mph100%30.15 "Hg0 mi
11:50 PM
Oct 19
46 °FFog.1 mph100%30.15 "Hg0 mi
11:20 PM46 °FFog.No wind100%30.18 "Hg0 mi
Weather by CustomWeather, © 2014

See weather overviewHow to use our weather pages